RH
8 8 8 8 10 14 17 15 15 22 32 36 35 30 26 21 17 13 9 6 6 4 3 5 5 4 5 4 5 7 15 39 71 89 89 87 88 89 88 94 90 65
9 9 9 8 8 12 17 17 16 20 29 37 39 39 38 35 31 26 21 15 12 9 6 4 5 5 5 5 5 7 9 18 46 78 91 89 86 88 89 93 93 72
11 8 8 8 7 9 14 17 17 17 21 30 37 40 40 40 39 35 32 28 22 19 14 8 5 4 5 7 6 7 10 12 24 53 82 92 88 88 91 92 91 80
16 11 7 7 7 8 12 16 18 16 16 23 32 40 42 42 43 42 39 36 33 30 26 16 10 7 5 6 7 8 10 12 15 30 61 87 91 89 93 90 86 86
19 15 9 7 7 7 10 14 17 17 15 18 25 34 41 44 46 48 46 42 40 39 38 30 20 13 9 6 7 9 9 11 14 17 37 75 94 89 90 90 83 86
21 18 13 9 7 7 10 12 15 17 15 15 18 24 35 43 47 50 53 51 46 44 45 44 35 26 17 9 6 8 10 10 13 13 19 55 91 91 85 89 82 79
24 22 17 12 10 9 10 12 13 15 15 15 15 18 27 39 47 52 57 60 56 51 50 52 50 41 30 19 9 7 10 10 11 14 11 30 72 92 86 85 82 79
28 26 22 16 12 10 11 13 13 13 15 17 18 21 26 36 45 52 59 65 63 58 56 58 60 55 44 33 20 11 11 11 10 14 12 13 41 79 90 83 79 82
29 27 24 19 15 11 12 14 15 16 19 24 28 33 39 45 50 54 61 68 67 62 60 62 65 64 55 44 33 21 15 13 10 11 13 9 16 49 81 85 78 80
33 27 24 20 16 13 12 15 18 20 25 33 42 50 56 61 63 62 64 68 67 65 63 62 65 67 62 51 42 34 24 16 14 11 12 12 9 18 46 71 79 79
38 30 23 19 16 14 12 16 21 26 31 39 50 59 66 70 71 68 67 66 67 69 65 60 61 65 64 57 47 42 34 24 18 14 11 12 14 9 13 44 76 83
40 32 25 20 17 14 14 18 23 30 36 44 53 60 66 71 72 69 66 64 67 72 69 60 56 58 62 60 51 44 40 31 23 18 14 11 15 15 5 23 64 85
38 34 29 23 19 17 17 21 26 32 39 49 56 58 61 68 71 70 66 63 65 70 69 62 55 52 55 58 55 48 42 37 29 21 18 13 14 18 9 14 56 86
40 39 34 27 23 21 21 24 30 37 45 53 58 59 60 64 68 69 67 63 62 63 63 62 56 49 48 51 53 51 44 40 35 27 21 17 15 20 13 13 49 85
45 41 35 30 28 29 30 34 41 50 59 63 64 64 63 62 64 65 63 59 57 56 55 56 54 50 47 45 46 50 48 42 38 32 26 20 18 21 16 12 39 78
48 43 38 38 40 42 46 51 58 64 68 68 65 63 61 60 59 57 55 53 50 49 48 48 49 48 47 45 43 45 49 46 40 35 29 22 19 22 19 12 25 63
55 53 52 54 57 59 61 63 66 67 66 63 58 55 54 54 54 51 49 48 45 46 47 47 48 48 47 48 45 44 48 48 41 36 31 23 20 21 21 15 18 49
64 64 64 66 67 67 67 65 64 62 58 53 48 46 46 48 51 49 46 47 50 53 55 56 57 56 53 51 49 46 49 49 43 37 32 25 20 19 19 18 20 46
68 67 66 68 68 68 65 61 58 54 48 44 41 42 46 50 52 50 47 53 60 61 62 63 61 62 60 57 53 50 49 51 46 38 32 27 22 20 21 20 26 53
66 68 70 72 73 73 71 67 63 58 53 50 49 50 54 58 61 61 60 65 69 68 67 64 60 60 62 60 58 53 51 54 50 39 33 29 22 19 20 21 36 70
70 75 78 79 80 80 78 74 72 68 65 64 63 64 69 73 75 76 73 73 77 78 75 68 61 60 63 66 65 57 52 57 53 41 34 29 31 36 30 25 42 75
79 82 81 79 77 75 72 70 70 70 73 76 76 79 86 88 84 81 78 78 82 84 81 74 68 67 71 75 73 61 56 60 56 47 36 29 46 65 55 44 52 71
83 81 76 74 71 68 67 71 74 76 81 87 89 92 97 94 86 81 80 83 87 88 87 83 84 86 86 87 82 67 60 60 57 53 41 29 45 67 65 64 76 83
82 77 73 69 68 71 75 79 81 82 85 90 93 96 98 95 88 82 81 85 91 95 96 94 96 99 96 95 92 77 66 64 56 48 41 33 41 61 74 85 95 98
82 76 73 72 75 80 84 85 84 84 88 90 92 95 98 96 90 84 81 87 94 98 100 99 99 101 99 99 96 84 74 72 61 45 41 45 50 64 83 96 97 95
85 78 77 80 84 86 87 86 84 88 93 92 89 92 97 99 97 91 89 93 97 99 100 100 97 95 96 96 95 89 80 69 55 44 43 53 56 54 66 87 94 87
Wind_Speed
28 29 30 30 30 29 28 27 27 27 28 29 30 31 33 35 37 39 42 45 48 48 48 48 51 53 55 56 57 57 58 60 59 54 52 52 49 46 45 43 39 36
28 29 30 32 32 31 30 29 29 28 28 29 31 32 33 35 36 38 39 41 45 48 48 47 48 51 54 55 56 56 57 60 63 59 54 51 48 47 47 43 38 36
31 31 31 32 34 34 33 32 31 30 29 30 31 32 33 34 36 37 38 39 43 46 47 47 47 49 52 54 56 57 56 58 62 62 59 53 48 49 48 43 40 39
34 34 33 33 35 35 35 35 33 32 31 31 32 33 33 33 33 35 36 38 41 44 46 47 47 47 49 53 55 57 57 58 59 61 62 57 51 51 51 47 45 42
36 36 36 36 36 36 37 36 35 34 33 33 33 34 35 34 33 33 34 35 38 41 44 47 47 47 48 51 54 56 58 58 58 60 63 59 53 52 53 52 49 46
37 37 37 38 38 38 38 37 36 36 36 35 36 37 37 37 37 36 36 35 36 38 41 45 47 48 48 50 53 55 57 59 59 59 62 62 56 53 55 55 52 51
39 38 38 39 39 39 39 38 37 37 37 37 37 38 39 38 39 40 39 39 38 37 39 42 45 48 49 50 52 55 56 58 59 60 61 63 60 55 55 56 54 54
41 40 39 39 40 40 40 39 38 38 38 37 37 38 39 40 40 41 41 41 41 39 39 40 43 46 49 51 52 54 56 57 59 61 61 62 63 58 54 56 57 56
43 42 41 40 40 41 41 40 39 38 38 37 37 37 39 40 40 41 42 42 41 41 39 40 42 45 48 51 52 53 55 56 57 60 61 61 64 63 58 55 56 59
46 44 43 41 40 41 41 40 40 39 38 38 37 37 38 39 38 39 41 41 41 40 39 39 41 44 47 50 51 52 54 56 57 59 61 60 62 65 63 58 56 59
48 46 44 41 40 40 40 40 40 39 38 38 38 38 38 38 38 38 40 41 41 40 38 38 40 44 46 49 50 51 52 55 57 58 59 59 59 61 64 63 58 56
48 46 44 40 39 39 39 39 39 39 39 39 39 39 39 39 38 37 39 41 41 39 38 37 39 42 46 48 49 50 51 53 56 58 58 58 58 59 61 63 59 54
45 44 42 39 37 37 37 38 39 39 40 40 41 42 41 40 39 38 39 41 41 41 39 37 36 39 44 48 50 50 50 52 56 58 58 57 58 58 60 61 58 53
41 40 39 38 36 35 36 38 39 40 41 42 43 44 43 42 41 40 40 41 42 42 42 40 39 38 40 46 51 51 51 52 55 58 59 58 57 58 59 59 57 54
37 37 37 36 35 35 37 38 39 41 42 43 43 43 43 43 44 43 42 42 43 43 44 44 44 43 41 43 49 53 52 52 55 57 59 58 57 58 58 58 58 56
36 35 35 34 35 36 37 38 40 41 42 42 41 41 42 43 45 46 46 46 46 46 46 47 47 47 45 44 47 52 53 53 54 57 58 58 58 58 58 59 61 58
34 34 33 34 36 37 38 39 40 41 41 42 42 42 43 45 47 49 49 49 50 50 50 51 51 51 50 47 48 51 53 53 54 55 56 57 58 58 58 60 61 59
34 34 34 35 37 38 39 40 41 42 42 43 44 44 45 47 49 50 51 51 50 49 49 50 51 52 54 52 50 51 52 53 53 53 54 57 58 58 59 59 59 57
33 34 35 36 37 38 39 40 41 43 44 44 45 45 46 48 48 49 50 50 48 45 45 46 48 50 53 55 54 52 52 53 53 52 53 55 57 58 58 57 57 56
33 33 34 36 37 38 38 39 41 43 45 46 46 46 47 47 46 46 46 46 45 44 45 47 48 48 51 55 55 52 51 52 51 50 52 53 55 57 56 55 57 56
32 33 34 35 35 35 36 37 39 41 43 45 45 45 44 43 43 42 42 43 43 43 44 46 48 48 50 54 54 52 50 50 49 48 50 52 53 54 53 52 54 54
32 33 34 34 33 34 36 38 40 40 40 40 40 38 37 37 39 39 39 39 39 38 39 42 44 44 48 52 52 49 48 48 47 47 48 51 52 50 47 48 50 52
32 33 34 34 34 36 39 42 42 39 36 35 34 33 33 35 37 37 36 35 33 32 33 35 35 39 45 47 46 46 47 47 46 46 47 50 50 47 45 47 49 51
31 34 35 37 39 41 44 46 44 38 32 31 32 31 33 35 36 37 35 32 29 28 28 29 31 38 45 43 41 43 45 46 46 46 46 48 48 46 47 51 51 48
32 34 37 40 43 45 48 48 43 37 31 28 30 32 34 35 36 37 36 32 29 29 30 30 34 41 46 42 39 42 45 45 46 46 47 48 49 47 48 51 48 44
32 35 39 43 46 48 50 47 42 38 32 26 28 30 32 32 32 34 35 33 31 32 34 35 37 43 47 44 40 42 46 47 47 48 50 52 52 50 49 48 45 45
Wind_Direction
298 291 285 281 278 273 268 262 256 253 254 256 257 257 258 258 257 255 254 255 256 255 253 250 247 245 243 241 239 240 241 242 241 240 240 240 235 234 237 235 234 236
300 294 289 284 280 276 272 266 259 255 253 255 258 257 257 260 262 261 258 255 255 255 253 249 247 245 243 242 239 238 239 240 240 239 238 239 233 231 235 234 232 234
302 295 291 287 283 279 275 269 264 259 255 254 256 256 255 256 259 262 261 258 255 254 254 250 246 244 244 243 240 238 237 237 239 238 238 238 233 230 233 233 230 231
303 298 292 288 286 282 277 273 268 264 259 255 254 254 253 253 256 259 260 258 255 253 253 251 247 243 242 242 241 238 237 236 237 237 237 237 233 229 230 230 228 228
303 299 294 290 287 284 280 275 272 269 264 258 254 254 254 253 254 257 259 259 257 255 253 251 248 243 239 240 241 240 237 236 236 236 235 235 232 227 227 227 228 229
302 298 294 291 287 285 282 278 274 271 267 262 258 255 255 255 256 257 260 261 260 257 254 251 249 245 240 237 238 240 239 236 236 236 234 233 232 228 226 226 226 228
301 297 294 290 286 284 282 280 275 271 269 266 262 258 257 257 257 258 260 261 261 258 254 250 248 246 242 237 236 238 239 237 235 235 235 233 232 230 229 227 225 227
301 297 293 289 286 283 281 280 277 272 270 268 264 263 261 259 259 258 258 259 260 257 253 249 246 245 243 239 235 235 236 237 235 234 235 233 232 231 230 228 226 227
301 298 294 289 286 282 279 278 276 272 270 269 267 266 264 263 261 258 256 255 256 256 252 247 244 242 242 239 237 235 234 236 236 234 234 234 232 231 230 229 226 226
302 300 295 290 285 282 277 275 275 272 270 268 268 267 266 266 262 257 253 251 253 255 253 246 241 240 240 239 237 236 234 234 235 234 234 233 233 232 231 232 228 224
302 301 297 290 285 280 276 273 273 272 270 268 268 268 267 265 261 255 251 249 250 253 252 248 241 237 238 238 236 236 235 234 234 234 233 232 233 233 231 231 231 227
302 301 297 291 284 278 274 271 271 271 270 269 269 269 267 264 260 255 251 249 248 249 250 249 243 237 237 238 237 234 234 234 234 233 232 231 231 232 231 230 231 230
301 299 296 291 284 278 274 272 272 272 271 271 271 270 269 266 262 257 252 249 247 246 246 248 247 241 237 238 238 235 233 233 233 232 231 230 229 230 230 228 228 226
300 298 296 292 286 280 277 275 274 274 274 273 273 272 271 269 265 260 254 250 247 245 244 245 247 245 240 238 238 237 234 231 232 231 230 228 227 227 228 227 224 222
300 298 295 292 288 283 280 278 277 277 276 275 274 273 272 270 267 262 257 253 249 247 244 243 244 246 244 240 238 237 236 232 230 230 229 227 225 226 227 225 222 221
302 299 296 293 290 286 283 281 280 280 278 276 274 273 272 271 268 264 259 255 252 249 246 244 244 244 243 241 239 237 236 233 230 228 227 226 224 224 225 224 221 220
304 303 299 296 293 290 288 286 284 282 279 277 274 273 272 271 268 265 261 258 255 252 250 247 245 244 242 239 237 236 235 233 230 227 225 224 223 222 223 223 221 220
307 305 302 301 299 297 294 291 288 285 282 280 277 274 272 270 267 264 262 260 257 254 252 248 245 243 240 237 234 233 233 231 230 227 224 223 222 221 222 222 220 220
308 307 307 306 304 302 299 296 292 289 285 282 279 275 273 269 266 262 260 258 256 254 252 249 245 242 238 234 231 229 229 229 228 226 222 221 221 220 221 220 217 218
311 312 312 310 307 304 301 298 295 291 288 285 282 277 273 268 264 258 255 254 255 254 252 248 245 240 235 230 227 225 225 226 226 224 220 219 219 220 220 219 217 219
316 315 312 310 307 304 302 301 299 295 290 285 280 274 267 261 256 252 249 250 252 252 250 246 242 238 230 224 222 221 220 222 224 222 218 216 217 218 219 217 218 219
317 314 312 311 310 309 309 309 307 300 292 283 276 268 257 249 247 246 245 245 246 247 246 243 239 233 224 219 218 216 215 218 220 219 217 214 213 214 214 214 219 220
316 316 317 318 318 316 316 315 313 305 294 283 274 262 248 243 243 244 243 241 239 240 242 238 231 222 216 214 213 210 209 213 217 216 214 212 210 208 208 211 217 220
319 322 325 325 322 319 318 319 317 312 299 285 274 262 249 244 243 243 243 238 230 229 231 228 221 213 208 207 209 208 207 210 214 213 210 208 206 205 206 206 208 211
324 328 329 327 324 322 323 323 323 320 310 289 269 258 250 244 242 243 242 234 222 219 218 219 218 211 204 202 204 207 208 208 210 209 204 201 200 200 201 198 199 203
327 330 329 327 327 329 331 330 329 327 319 297 274 260 248 240 236 237 237 228 217 213 212 215 216 208 202 202 202 204 208 209 208 205 200 198 198 199 200 200 199 200